User: anonymous   Login
Location: Whispering Pines Observatory
(39.4020°N, 104.7430°W)
Time: 14:12:07
(UTC-06:00)
Language:

MOS 1 Rocket - Orbit

View from above orbital plane
View from above orbital plane
View from above satellite
View from above satellite

Ground track
Ground track

The orbit data is extracted from the following two-line orbital elements,

1 17528U 87018B   16237.90679648 +.00000044 +00000-0 +18727-4 0  9992
2 17528 097.4101 223.3236 0153544 145.8110 245.8218 14.50675668536305
Epoch (UTC): 24 August 2016 21:45:47
Eccentricity: 0.0153544
inclination: 97.4101°
perigee height: 614 km
apogee height: 832 km
right ascension of ascending node: 223.3236°
argument of perigee: 145.8110°
revolutions per day: 14.50675668
mean anomaly at epoch: 245.8218°
orbit number at epoch: 53630

The dashed part of the orbit path shows where the satellite is in the earth's shadow,  

DLR